TimeEDT,TemperatureF,Dew PointF,Humidity,Sea Level PressureIn,VisibilityMPH,Wind Direction,Wind SpeedMPH,Gust SpeedMPH,PrecipitationIn,Events,Conditions,WindDirDegrees,DateUTC
12:53 AM,61.0,55.0,81,29.80,10.0,Calm,Calm,-,N/A,,Clear,0,2011-10-18 04:53:00
1:53 AM,59.0,54.0,83,29.79,10.0,Calm,Calm,-,N/A,,Clear,0,2011-10-18 05:53:00
2:53 AM,60.1,54.0,80,29.78,10.0,Calm,Calm,-,N/A,,Clear,0,2011-10-18 06:53:00
3:53 AM,55.9,54.0,93,29.79,10.0,Calm,Calm,-,N/A,,Clear,0,2011-10-18 07:53:00
4:53 AM,53.6,51.8,94,29.85,8.0,Calm,Calm,-,N/A,,Clear,0,2011-10-18 08:53:00
5:53 AM,54.0,52.0,93,29.79,10.0,Calm,Calm,-,N/A,,Clear,0,2011-10-18 09:53:00
6:53 AM,53.1,52.0,96,29.80,4.0,Calm,Calm,-,N/A,,Clear,0,2011-10-18 10:53:00
7:16 AM,50.0,48.2,94,29.85,1.8,Calm,Calm,-,N/A,,Clear,0,2011-10-18 11:16:00
7:29 AM,51.8,51.8,100,29.85,3.0,Calm,Calm,-,N/A,,Clear,0,2011-10-18 11:29:00
7:48 AM,51.8,50.0,94,29.85,3.0,Calm,Calm,-,N/A,,Clear,0,2011-10-18 11:48:00
7:53 AM,51.8,50.0,94,29.85,5.0,Calm,Calm,-,N/A,,Clear,0,2011-10-18 11:53:00
8:53 AM,57.0,54.0,89,29.82,8.0,Calm,Calm,-,N/A,,Clear,0,2011-10-18 12:53:00
9:53 AM,62.1,57.0,84,29.82,10.0,Calm,Calm,-,N/A,,Clear,0,2011-10-18 13:53:00
10:53 AM,66.9,55.9,68,29.81,10.0,Calm,Calm,-,N/A,,Clear,0,2011-10-18 14:53:00
11:53 AM,72.0,57.0,59,29.79,10.0,Variable,4.6,-,N/A,,Clear,0,2011-10-18 15:53:00
12:53 PM,75.2,55.4,50,29.83,10.0,South,5.8,-,N/A,,Clear,180,2011-10-18 16:53:00
1:53 PM,79.0,55.0,44,29.73,10.0,SSW,8.1,-,N/A,,Clear,210,2011-10-18 17:53:00
2:53 PM,79.0,52.0,39,29.70,10.0,SSW,6.9,17.3,N/A,,Clear,200,2011-10-18 18:53:00
3:53 PM,77.0,52.0,42,29.69,10.0,South,4.6,-,N/A,,Partly Cloudy,190,2011-10-18 19:53:00
4:53 PM,75.0,55.0,50,29.69,10.0,Variable,3.5,-,N/A,,Clear,0,2011-10-18 20:53:00
5:53 PM,73.0,55.0,53,29.68,10.0,Calm,Calm,-,N/A,,Clear,0,2011-10-18 21:53:00
6:53 PM,71.1,57.0,61,29.69,10.0,Calm,Calm,-,N/A,,Mostly Cloudy,0,2011-10-18 22:53:00
7:53 PM,66.0,61.0,84,29.71,7.0,Calm,Calm,-,0.03,Rain,Light Rain,0,2011-10-18 23:53:00
8:53 PM,62.6,60.8,94,29.74,7.0,Variable,3.5,-,N/A,Rain,Light Rain,0,2011-10-19 00:53:00
9:53 PM,61.0,59.0,93,29.67,5.0,Calm,Calm,-,0.13,Rain,Rain,0,2011-10-19 01:53:00
10:53 PM,60.1,59.0,96,29.66,3.0,Calm,Calm,-,0.15,Rain,Rain,0,2011-10-19 02:53:00
10:55 PM,60.8,59.0,94,29.70,2.5,Calm,Calm,-,0.01,Rain,Rain,0,2011-10-19 02:55:00
11:09 PM,60.8,59.0,94,29.70,6.0,Calm,Calm,-,0.03,Rain,Light Rain,0,2011-10-19 03:09:00
11:53 PM,60.1,59.0,96,29.62,9.0,Calm,Calm,-,0.03,,Overcast,0,2011-10-19 03:53:00